Weather History for Gonzales, LA

Change the Weather History Date:

Thursday, February 7, 2013

  Actual Average (KBTR) Record (KBTR)
Temperature  
Mean Temperature 60 °F 54 °F  
Max Temperature 66 °F 64 °F 82 °F (1957)
Min Temperature 53 °F 43 °F 17 °F (1895)
Degree Days  
Heating Degree Days 6 12  
Month to date heating degree days 87  
Since 1 July heating degree days 1127  
Cooling Degree Days 0 1  
Month to date cooling degree days 5  
Year to date cooling degree days 18  
Growing Degree Days 10 (Base 50)    
Moisture  
Dew Point 58 °F    
Average Humidity 93    
Maximum Humidity 100    
Minimum Humidity 74    
Precipitation  
Precipitation 1.73 in 0.19 in 0.90 in (1906)
Month to date precipitation 1.32  
Year to date precipitation 7.04  
Snow  
Snow 0.00 in - - ()
Month to date snowfall  
Since 1 July snowfall  
Snow Depth -    
Sea Level Pressure  
Sea Level Pressure 29.92 in    
Wind  
Wind Speed 6 mph (NNW)    
Max Wind Speed 16 mph    
Max Gust Speed 24 mph    
Visibility 8 miles    
Events Fog , Rain , Thunderstorm    
T = Trace of Precipitation, MM = Missing Value Source: NWS Daily Summary

Daily Weather History Graph

Daily Weather History Graph

Search for Another Location

Airport:

Trip Planner

Search our weather history database for the weather conditions in past years. The results will help you decide how hot, cold, wet, or windy it might be!

Date:

Astronomy

Feb. 07, 2013 Rise Set
Actual Time 6:50 AM CST 5:46 PM CST
Civil Twilight 6:25 AM CST 6:10 PM CST
Nautical Twilight 5:56 AM CST 6:39 PM CST
Astronomical Twilight 5:28 AM CST 7:07 PM CST
Moon 4:23 AM CST (2/7) 3:16 PM CST (2/7)
Length of Visible Light 11h 45m
Length of Day
10h 55m
Waning Crescent, 9% of the Moon is Illuminated
Feb 7
Waning Crescent
Feb 10
New
Feb 17
First Quarter
Feb 25
Full
Mar 4
Last Quarter

Hourly Weather History & Observations

Time (CST) Temp. Dew Point Humidity Pressure Visibility Wind Dir Wind Speed Gust Speed Precip Events Conditions
12:15 AM 59.9 °F 59.2 °F 97% 29.92 in 5.0 mi NE 8.1 mph - 0.07 in Rain Heavy Rain
12:35 AM 59.9 °F 59.4 °F 98% 29.90 in 3.0 mi NNE 9.2 mph - 0.24 in Rain Heavy Rain
12:55 AM 59.4 °F 59.0 °F 99% 29.91 in 5.0 mi NNE 6.9 mph - 0.35 in Rain Heavy Rain
1:15 AM 59.4 °F 59.0 °F 99% 29.90 in 5.0 mi NNE 9.2 mph 16.1 mph 0.09 in Rain Heavy Rain
1:35 AM 59.4 °F 59.0 °F 99% 29.89 in 4.0 mi NNE 9.2 mph 16.1 mph 0.24 in Rain Heavy Rain
1:55 AM 59.4 °F 59.0 °F 99% 29.87 in 7.0 mi NNE 6.9 mph 20.7 mph 0.32 in Rain Rain
2:15 AM 59.4 °F 59.0 °F 99% 29.85 in 7.0 mi NNE 11.5 mph 21.9 mph 0.07 in Rain Light Rain
2:35 AM 59.4 °F 59.0 °F 99% 29.85 in 10.0 mi NNE 8.1 mph 19.6 mph 0.09 in Rain Light Rain
2:55 AM 59.9 °F 59.0 °F 97% 29.88 in 7.0 mi North 5.8 mph - 0.15 in Rain Heavy Rain
3:15 AM 59.5 °F 59.0 °F 98% 29.84 in 4.0 mi NNE 15.0 mph 24.2 mph 0.16 in Rain , Thunderstorm Rain
3:35 AM 59.0 °F 58.3 °F 97% 29.88 in 3.0 mi North 16.1 mph 20.7 mph 0.40 in Rain Heavy Rain
3:55 AM 58.6 °F 58.1 °F 98% 29.87 in 7.0 mi NNE 10.4 mph 19.6 mph 0.71 in Rain , Thunderstorm Light Thunderstorms and Rain
4:15 AM 59.0 °F 57.7 °F 96% 29.90 in 7.0 mi North 6.9 mph - 0.04 in Rain , Thunderstorm Heavy Thunderstorms and Rain
4:35 AM 59.0 °F 58.1 °F 97% 29.86 in 5.0 mi ENE 9.2 mph - 0.17 in Rain , Thunderstorm Thunderstorms and Rain
4:55 AM 59.0 °F 58.5 °F 98% 29.81 in 10.0 mi East 13.8 mph 18.4 mph 0.20 in Rain Light Rain
5:15 AM 59.0 °F 58.3 °F 97% 29.82 in 10.0 mi NNE 6.9 mph - N/A   Mostly Cloudy
5:35 AM 59.0 °F 58.3 °F 97% 29.84 in 10.0 mi North 3.5 mph - N/A   Mostly Cloudy
6:15 AM 58.3 °F 58.1 °F 99% 29.85 in 10.0 mi Calm Calm - N/A   Clear
6:35 AM 57.2 °F 57.0 °F 99% 29.87 in 10.0 mi Calm Calm - N/A   Clear
6:55 AM 56.5 °F 56.5 °F 100% 29.87 in 0.5 mi Calm Calm - N/A Fog Fog
7:15 AM 56.3 °F 56.3 °F 100% 29.89 in 0.5 mi West 3.5 mph - N/A Fog Fog
7:35 AM 57.7 °F 57.7 °F 100% 29.91 in 10.0 mi Calm Calm - N/A   Overcast
7:55 AM 58.1 °F 58.1 °F 100% 29.92 in 10.0 mi WSW 3.5 mph - N/A   Overcast
8:15 AM 58.6 °F 58.6 °F 100% 29.92 in 10.0 mi Calm Calm - N/A   Overcast
8:35 AM 59.4 °F 59.0 °F 99% 29.93 in 10.0 mi Calm Calm - N/A   Overcast
8:55 AM 59.9 °F 59.5 °F 99% 29.94 in 10.0 mi NW 3.5 mph - N/A   Overcast
9:15 AM 60.3 °F 59.0 °F 96% 29.94 in 10.0 mi North - - N/A   Overcast
9:35 AM 60.3 °F 58.3 °F 93% 29.95 in 10.0 mi NW 3.5 mph - N/A   Overcast
9:55 AM 60.8 °F 58.5 °F 92% 29.96 in 10.0 mi Calm Calm - N/A   Overcast
10:15 AM 60.6 °F 59.0 °F 94% 29.96 in 10.0 mi WSW 3.5 mph - N/A   Overcast
10:35 AM 60.4 °F 58.5 °F 93% 29.96 in 10.0 mi West 4.6 mph - N/A   Overcast
10:55 AM 60.8 °F 58.5 °F 92% 29.96 in 10.0 mi West 3.5 mph - N/A   Overcast
11:15 AM 60.8 °F 58.6 °F 93% 29.96 in 10.0 mi West 3.5 mph - N/A   Overcast
11:35 AM 60.8 °F 59.0 °F 94% 29.96 in 5.0 mi NW 6.9 mph - N/A   Overcast
11:55 AM 60.8 °F 58.5 °F 92% 29.95 in 7.0 mi NW 5.8 mph - N/A   Overcast
12:15 PM 61.2 °F 58.6 °F 91% 29.95 in 7.0 mi NW 5.8 mph - N/A   Overcast
12:35 PM 61.3 °F 58.3 °F 90% 29.95 in 10.0 mi WNW 9.2 mph - N/A   Overcast
12:55 PM 61.9 °F 58.5 °F 89% 29.94 in 10.0 mi NW 6.9 mph - N/A   Overcast
1:15 PM 62.4 °F 58.3 °F 86% 29.93 in 7.0 mi NW 8.1 mph - N/A   Overcast
1:35 PM 63.0 °F 58.3 °F 85% 29.92 in 7.0 mi NW 8.1 mph - N/A   Overcast
1:55 PM 63.3 °F 57.9 °F 83% 29.92 in 10.0 mi NNW 5.8 mph - N/A   Overcast
2:15 PM 63.5 °F 57.7 °F 81% 29.92 in 10.0 mi NNW 5.8 mph - N/A   Overcast
2:35 PM 64.4 °F 58.1 °F 80% 29.92 in 10.0 mi NW 5.8 mph - N/A   Overcast
2:55 PM 64.2 °F 57.7 °F 79% 29.92 in 10.0 mi NW 6.9 mph - N/A   Overcast
3:15 PM 63.9 °F 57.6 °F 80% 29.92 in 10.0 mi WNW 4.6 mph - N/A   Mostly Cloudy
3:35 PM 65.3 °F 57.7 °F 76% 29.92 in 10.0 mi WNW 5.8 mph - N/A   Scattered Clouds
3:55 PM 65.8 °F 57.6 °F 75% 29.92 in 10.0 mi WNW 5.8 mph - N/A   Clear
4:15 PM 66.2 °F 57.9 °F 75% 29.92 in 10.0 mi NW 5.8 mph - N/A   Clear
4:35 PM 66.4 °F 58.1 °F 75% 29.92 in 10.0 mi NW 4.6 mph - N/A   Clear
4:55 PM 66.4 °F 58.3 °F 75% 29.92 in 10.0 mi Calm Calm - N/A   Clear
5:15 PM 66.2 °F 57.6 °F 74% 29.92 in 10.0 mi Calm Calm - N/A   Clear
5:35 PM 65.3 °F 57.6 °F 76% 29.92 in 10.0 mi Calm Calm - N/A   Clear
5:55 PM 63.9 °F 57.7 °F 80% 29.92 in 10.0 mi Calm Calm - N/A   Clear
6:15 PM 61.3 °F 57.6 °F 87% 29.92 in 10.0 mi Calm Calm - N/A   Clear
6:35 PM 59.9 °F 58.5 °F 95% 29.93 in 10.0 mi Calm Calm - N/A   Clear
6:55 PM 58.8 °F 57.6 °F 96% 29.93 in 10.0 mi Calm Calm - N/A   Clear
7:15 PM 58.5 °F 56.8 °F 94% 29.93 in 10.0 mi Calm Calm - N/A   Clear
7:35 PM 58.3 °F 56.8 °F 95% 29.93 in 10.0 mi Calm Calm - N/A   Clear
7:55 PM 58.8 °F 57.2 °F 94% 29.94 in 10.0 mi Calm Calm - N/A   Clear
8:15 PM 57.0 °F 56.3 °F 97% 29.94 in 10.0 mi Calm Calm - N/A   Clear
8:35 PM 56.5 °F 56.3 °F 99% 29.94 in 7.0 mi Calm Calm - N/A   Clear
8:55 PM 55.8 °F 55.6 °F 99% 29.95 in 5.0 mi Calm Calm - N/A   Clear
9:15 PM 56.3 °F 56.3 °F 100% 29.95 in 5.0 mi Calm Calm - N/A   Clear
9:35 PM 55.4 °F 55.4 °F 100% 29.95 in 3.0 mi Calm Calm - N/A   Clear
9:55 PM 54.5 °F 54.5 °F 100% 29.96 in 5.0 mi Calm Calm - N/A   Clear
10:15 PM 54.7 °F 54.7 °F 100% 29.96 in 3.0 mi Calm Calm - N/A   Clear
10:35 PM 55.0 °F 55.0 °F 100% 29.96 in 5.0 mi Calm Calm - N/A   Clear
10:55 PM 54.7 °F 54.7 °F 100% 29.97 in 5.0 mi Calm Calm - N/A   Clear
11:15 PM 54.9 °F 54.9 °F 100% 29.97 in 5.0 mi Calm Calm - N/A   Clear
11:35 PM 53.8 °F 53.6 °F 99% 29.97 in 7.0 mi Calm Calm - N/A   Clear
11:55 PM 53.6 °F 53.6 °F 100% 29.97 in 2.0 mi Calm Calm - N/A   Scattered Clouds